Vertical_Velocity
0 -1 -2 -5 -0 -2 -4 -6 -4 -2 -1 -1 1 1 1 -1 -0 1 -5 -2 6 7 3 -0 4 -2 -7 0 -2 3 -1 5 3 3 1 -0 1 7 1 1 -0 2 1
-2 -0 0 -3 -2 -3 -2 -3 -3 -2 1 -2 1 -0 -0 0 1 -3 -3 0 12 0 8 1 13 12 -1 -3 -0 3 3 1 0 0 2 4 6 -1 -1 -2 -3 4 5
-1 -1 -0 -1 -3 -1 -2 -2 -0 -1 -4 1 -1 0 1 1 -1 -3 12 3 -4 18 3 6 6 8 1 -1 0 -2 3 -2 -0 3 1 -3 -1 1 0 -2 -0 2 4
-0 -0 0 -3 -2 -2 -1 -1 -1 -2 0 -1 -1 4 -0 -0 -2 -2 2 -4 5 8 3 7 2 3 4 3 3 1 2 9 1 3 -2 -1 -0 -1 -1 0 2 2 -1
0 -1 -1 -2 -1 -2 -2 -4 -2 -1 -2 -1 0 4 1 -2 1 -0 -1 7 -1 -5 -2 -1 -2 -2 0 -0 -0 -0 -2 -4 -3 2 2 2 -3 -3 1 1 0 0 4
-1 -1 -1 -1 0 -2 -1 -1 -2 -2 -0 0 1 2 1 4 -0 0 -0 1 6 6 2 4 2 1 4 11 5 0 -1 3 3 3 4 -3 -3 0 4 1 2 1 -3
0 -1 -4 -0 -2 -2 1 -1 1 1 2 -6 -2 -1 1 0 4 -2 -3 -0 10 2 1 1 1 4 6 0 1 4 2 3 3 -1 -1 2 0 1 2 0 -3 -0 -0
0 -3 -2 1 -0 -3 -2 -2 1 1 2 6 -1 -1 3 11 -1 7 3 10 5 10 8 8 9 4 2 1 2 6 -1 -2 0 3 5 -1 -2 2 0 -1 -3 4 5
0 -1 -1 0 -3 -1 -6 2 1 0 2 2 2 1 12 -0 5 1 1 2 6 5 1 2 2 3 4 4 -1 4 5 0 -1 -2 1 3 1 -2 3 2 3 2 -5
2 0 2 -1 -3 0 -3 -3 -3 -1 0 3 2 2 4 5 5 4 4 1 3 3 3 4 4 1 -1 1 1 0 -0 0 1 4 3 -2 1 4 1 -1 0 3 1
3 1 2 -0 -2 -2 -1 -2 -2 -1 1 1 1 1 3 3 0 -0 2 4 3 3 2 0 0 1 1 2 2 3 6 5 4 -1 -3 1 3 2 1 1 2 -0 -0
3 1 3 -1 0 -1 -0 -2 5 0 1 -0 1 2 -0 2 2 3 3 3 5 1 2 3 3 2 2 3 2 1 0 2 -4 1 3 0 -1 1 0 1 -0 2 0
4 1 3 -0 0 2 1 -2 2 1 2 -0 2 -2 -0 -1 -1 0 2 4 2 3 1 -1 -0 -0 1 -0 1 2 0 -3 3 2 1 -0 0 -1 -1 0 1 -4 -2
6 1 1 1 -2 1 -0 1 1 1 1 5 1 0 0 -0 1 0 0 0 0 -1 -2 1 1 0 1 2 3 -0 2 2 0 -0 0 1 1 -0 1 -2 -4 -4 -8
5 1 0 1 -0 -0 1 1 1 1 -0 -0 -1 -2 -1 -1 -0 1 0 0 1 2 1 -0 1 2 3 0 -1 1 1 0 -0 0 -0 1 2 -0 -2 -2 -4 -3 1
4 1 -0 2 2 1 0 0 2 2 1 1 0 2 3 2 3 1 0 0 -0 0 -0 0 0 0 -1 -1 -0 -1 -1 1 0 0 1 2 1 -2 -4 -3 -2 -1 -3
1 4 0 -1 1 3 1 0 3 1 1 3 2 3 2 2 2 0 -0 1 1 -0 -1 -1 -0 -1 -1 -1 -0 1 0 1 1 1 2 -1 -3 -3 -2 -1 -2 -4 -9
0 3 3 -0 -1 3 3 2 3 2 1 1 2 3 2 2 3 1 1 2 1 1 0 2 0 1 0 0 1 1 1 1 1 -1 -2 -4 -4 -1 -2 -2 -2 -4 -7
1 2 2 1 1 2 1 0 1 1 2 2 1 2 3 4 1 2 2 -0 -0 1 2 1 1 0 0 1 1 2 0 -1 -1 -2 -3 -2 -2 -3 -2 -3 -4 -3 -5
2 2 2 1 2 1 2 2 1 1 1 2 3 3 3 2 2 1 0 1 1 1 2 1 0 1 2 2 1 -0 -2 -2 -1 -2 -3 -2 -2 -3 -3 -3 -4 -8 -5
1 3 3 0 1 3 2 1 2 1 0 1 2 0 1 3 2 1 2 2 1 1 1 1 0 1 1 -1 -0 1 -0 -1 -1 -2 -3 -3 -3 -3 -3 -3 -6 -6 -2
1 2 3 2 1 2 2 1 0 0 1 2 1 2 3 2 2 2 2 1 1 0 1 0 2 1 -1 -2 -0 -1 -1 -3 -2 -2 -2 -2 -2 -3 -2 -3 -6 -2 -0
3 1 2 3 3 2 2 2 2 2 3 3 2 0 -0 1 4 3 0 0 0 -0 0 1 0 -2 -2 -1 -0 -1 -1 -2 -3 -1 -1 -2 -2 -2 -3 -5 -4 -2 -1
3 3 2 1 3 2 1 1 2 3 2 1 2 3 3 3 1 -0 -0 0 0 1 0 -1 -1 -1 -2 -2 -2 -0 -1 -2 -2 -2 -1 -2 -2 -3 -5 -5 -2 -3 -3
3 4 4 2 3 2 2 3 4 4 4 3 1 1 1 2 2 2 1 -0 0 0 -1 -1 -1 -1 -1 -1 -1 -2 -2 -3 -2 -2 -0 -1 -3 -5 -5 -3 -1 -0 -2
3 2 3 2 2 3 2 2 2 2 1 1 -0 -0 1 2 0 -1 -1 -1 -0 1 1 0 -1 -0 -1 -2 -1 -1 -1 -1 -1 -0 0 -2 -4 -4 -2 -2 -1 -1 -1
Height
5621 5621 5621 5620 5619 5617 5617 5617 5617 5617 5617 5618 5619 5620 5621 5623 5626 5630 5633 5637 5638 5643 5648 5653 5657 5661 5667 5671 5674 5678 5680 5680 5682 5684 5686 5685 5683 5684 5682 5680 5678 5673 5670
5611 5611 5611 5608 5608 5607 5606 5606 5606 5606 5606 5605 5607 5608 5610 5611 5614 5618 5622 5626 5627 5633 5640 5644 5648 5652 5655 5659 5665 5667 5669 5670 5672 5674 5674 5674 5674 5672 5670 5667 5666 5663 5659
5602 5601 5601 5600 5599 5598 5597 5597 5596 5595 5594 5594 5594 5596 5598 5600 5604 5607 5608 5614 5620 5624 5628 5634 5638 5643 5648 5652 5654 5658 5660 5662 5662 5662 5662 5663 5661 5661 5659 5658 5656 5654 5651
5594 5593 5593 5592 5591 5590 5590 5589 5587 5584 5582 5581 5581 5583 5587 5591 5594 5597 5600 5606 5611 5614 5619 5625 5631 5635 5640 5643 5645 5649 5651 5651 5655 5653 5654 5654 5653 5651 5649 5648 5645 5645 5641
5586 5586 5585 5584 5583 5583 5582 5581 5578 5575 5573 5572 5571 5574 5578 5582 5585 5588 5592 5598 5603 5608 5612 5618 5622 5626 5630 5632 5635 5639 5640 5641 5643 5644 5643 5644 5643 5643 5640 5638 5637 5634 5633
5579 5578 5577 5576 5576 5576 5574 5572 5570 5568 5566 5565 5566 5568 5571 5574 5576 5580 5586 5591 5596 5600 5604 5609 5613 5618 5621 5624 5626 5628 5631 5633 5633 5634 5634 5634 5635 5634 5631 5632 5627 5625 5625
5572 5571 5570 5569 5570 5569 5569 5567 5564 5561 5560 5561 5562 5563 5565 5568 5571 5576 5580 5584 5589 5594 5598 5602 5606 5609 5612 5615 5618 5620 5622 5624 5625 5626 5626 5628 5627 5625 5626 5622 5620 5618 5616
5566 5566 5564 5564 5564 5565 5564 5561 5557 5554 5554 5556 5558 5560 5561 5565 5567 5572 5575 5579 5584 5587 5591 5595 5598 5602 5605 5608 5611 5614 5615 5616 5618 5618 5617 5621 5621 5619 5616 5614 5612 5610 5601
5560 5560 5559 5559 5560 5560 5559 5555 5552 5549 5548 5550 5553 5557 5559 5561 5565 5568 5572 5575 5578 5581 5585 5589 5593 5596 5600 5603 5604 5606 5609 5610 5609 5612 5614 5616 5612 5609 5610 5608 5603 5595 5593
5554 5555 5555 5556 5557 5557 5557 5554 5550 5547 5546 5545 5548 5552 5555 5558 5560 5563 5566 5570 5574 5578 5583 5586 5590 5593 5596 5598 5600 5601 5603 5604 5607 5609 5608 5606 5605 5604 5603 5597 5590 5588 5583
5548 5549 5550 5552 5553 5553 5553 5553 5551 5548 5545 5545 5546 5549 5552 5555 5559 5563 5568 5571 5576 5578 5581 5584 5586 5589 5591 5593 5595 5597 5598 5600 5601 5601 5601 5601 5600 5596 5592 5588 5585 5579 5572
5543 5544 5546 5548 5550 5551 5551 5551 5550 5549 5547 5546 5549 5552 5556 5559 5561 5565 5568 5571 5574 5577 5579 5581 5583 5586 5588 5590 5591 5592 5594 5595 5595 5596 5596 5594 5592 5588 5585 5580 5575 5568 5560
5539 5539 5542 5544 5547 5549 5549 5549 5550 5550 5550 5550 5552 5555 5557 5560 5563 5565 5568 5570 5572 5575 5577 5579 5581 5583 5584 5586 5587 5589 5589 5590 5591 5591 5590 5587 5584 5581 5576 5571 5563 5556 5547
5534 5535 5537 5541 5543 5545 5547 5548 5550 5551 5552 5553 5555 5557 5558 5561 5563 5565 5568 5570 5572 5574 5575 5577 5578 5579 5581 5583 5584 5585 5586 5587 5586 5585 5583 5581 5577 5572 5566 5560 5551 5541 5531
5528 5531 5533 5536 5539 5542 5544 5546 5548 5550 5552 5553 5554 5556 5558 5560 5563 5565 5567 5569 5570 5571 5572 5574 5575 5577 5579 5580 5581 5582 5582 5581 5580 5579 5577 5573 5568 5562 5556 5548 5540 5531 5521
5523 5525 5528 5531 5535 5538 5540 5542 5545 5547 5550 5551 5553 5554 5556 5559 5561 5563 5565 5566 5568 5569 5570 5571 5573 5574 5576 5577 5577 5577 5576 5576 5575 5572 5568 5564 5558 5552 5545 5538 5530 5520 5508
5517 5520 5523 5526 5530 5534 5536 5539 5542 5545 5547 5548 5551 5553 5555 5557 5558 5560 5562 5564 5565 5566 5567 5568 5569 5571 5572 5572 5572 5572 5571 5570 5567 5564 5560 5555 5549 5543 5536 5528 5518 5507 5495
5511 5514 5518 5521 5525 5529 5532 5535 5538 5541 5543 5545 5548 5550 5551 5553 5555 5557 5559 5560 5561 5562 5563 5564 5566 5567 5567 5567 5567 5566 5565 5563 5560 5556 5551 5546 5540 5533 5526 5517 5507 5495 5482
5505 5509 5512 5516 5519 5523 5526 5529 5532 5535 5538 5540 5542 5545 5547 5550 5552 5553 5554 5556 5557 5558 5560 5561 5562 5562 5562 5562 5561 5560 5558 5555 5551 5547 5542 5536 5530 5523 5515 5506 5496 5485 5472
5500 5503 5507 5510 5514 5518 5521 5524 5527 5531 5534 5536 5539 5542 5544 5546 5548 5549 5550 5552 5553 5554 5555 5556 5557 5557 5557 5556 5554 5553 5550 5547 5543 5538 5533 5527 5520 5513 5505 5496 5485 5475 5464
5495 5498 5501 5505 5509 5512 5515 5519 5522 5526 5529 5531 5534 5536 5539 5541 5543 5544 5546 5547 5548 5550 5551 5551 5551 5551 5550 5549 5547 5545 5542 5538 5533 5528 5523 5517 5511 5503 5495 5486 5476 5465 5454
5489 5494 5497 5500 5503 5507 5510 5513 5516 5520 5523 5526 5529 5531 5533 5535 5537 5539 5541 5542 5543 5544 5545 5545 5545 5544 5543 5541 5539 5536 5532 5528 5523 5519 5513 5507 5500 5493 5486 5477 5467 5456 5448
5483 5489 5493 5495 5498 5502 5505 5508 5511 5514 5517 5520 5522 5525 5528 5530 5533 5534 5535 5536 5537 5538 5538 5538 5537 5536 5535 5533 5530 5526 5522 5518 5514 5509 5503 5497 5491 5484 5477 5468 5459 5450 5444
5477 5483 5488 5491 5494 5497 5500 5503 5506 5509 5512 5515 5518 5520 5523 5525 5526 5528 5529 5530 5530 5531 5531 5530 5529 5528 5526 5523 5520 5516 5513 5509 5504 5499 5493 5488 5482 5475 5468 5459 5451 5444 5438
5470 5477 5482 5486 5490 5493 5497 5500 5503 5505 5508 5510 5512 5515 5517 5519 5520 5521 5522 5522 5523 5523 5522 5521 5520 5518 5516 5513 5510 5507 5503 5499 5494 5489 5484 5478 5472 5465 5458 5451 5444 5439 5434
5464 5470 5477 5481 5485 5489 5492 5495 5498 5500 5502 5504 5506 5509 5510 5511 5512 5513 5514 5515 5515 5515 5514 5512 5511 5509 5506 5504 5500 5497 5493 5488 5484 5478 5473 5468 5462 5456 5450 5443 5438 5434 5431